Time,TemperatureF,DewpointF,PressureIn,WindDirection,WindDirectionDegrees,WindSpeedMPH,WindSpeedGustMPH,Humidity,HourlyPrecipIn,Conditions,Clouds,dailyrainin,SoftwareType,DateUTC
2013-03-26 00:02:00,31.0,26.0,-100.00,North,358,4.0,5.0,81,0.00,,,0.00,,2013-03-26 05:02:00,
2013-03-26 00:12:00,31.0,26.0,-100.00,North,358,4.0,5.0,81,0.00,,,0.00,,2013-03-26 05:12:00,
2013-03-26 00:22:00,31.0,26.0,-100.00,North,358,4.0,5.0,81,0.00,,,0.00,,2013-03-26 05:22:00,
2013-03-26 00:52:00,32.0,24.0,-100.00,NNE,31,7.0,11.0,71,0.00,,,0.00,,2013-03-26 05:52:00,
2013-03-26 01:02:00,32.0,24.0,-100.00,NNE,31,7.0,11.0,71,0.00,,,0.00,,2013-03-26 06:02:00,
2013-03-26 01:12:00,32.0,24.0,-100.00,NNE,31,7.0,11.0,71,0.00,,,0.00,,2013-03-26 06:12:00,
2013-03-26 01:22:00,32.0,24.0,-100.00,NNE,31,7.0,11.0,71,0.00,,,0.00,,2013-03-26 06:22:00,
2013-03-26 01:52:00,31.0,23.0,-100.00,NNE,15,6.0,12.0,73,0.00,,,0.00,,2013-03-26 06:52:00,
2013-03-26 02:02:00,31.0,23.0,-100.00,NNE,15,6.0,12.0,73,0.00,,,0.00,,2013-03-26 07:02:00,
2013-03-26 02:12:00,31.0,23.0,-100.00,NNE,15,6.0,12.0,73,0.00,,,0.00,,2013-03-26 07:12:00,
2013-03-26 02:22:00,31.0,23.0,-100.00,NNE,15,6.0,12.0,73,0.00,,,0.00,,2013-03-26 07:22:00,
2013-03-26 02:53:00,30.0,24.0,-100.00,North,6,7.0,10.0,77,0.00,,,0.00,,2013-03-26 07:53:00,
2013-03-26 03:02:00,30.0,24.0,-100.00,North,6,7.0,10.0,77,0.00,,,0.00,,2013-03-26 08:02:00,
2013-03-26 03:12:00,30.0,24.0,-100.00,North,6,7.0,10.0,77,0.00,,,0.00,,2013-03-26 08:12:00,
2013-03-26 03:22:00,30.0,24.0,-100.00,North,6,7.0,10.0,77,0.00,,,0.00,,2013-03-26 08:22:00,
2013-03-26 03:52:00,30.0,23.0,-100.00,North,351,7.0,11.0,76,0.00,,,0.00,,2013-03-26 08:52:00,
2013-03-26 04:02:00,30.0,23.0,-100.00,North,351,7.0,11.0,76,0.00,,,0.00,,2013-03-26 09:02:00,
2013-03-26 04:12:00,30.0,23.0,-100.00,North,351,7.0,11.0,76,0.00,,,0.00,,2013-03-26 09:12:00,
2013-03-26 04:22:00,30.0,23.0,-100.00,North,351,7.0,11.0,76,0.00,,,0.00,,2013-03-26 09:22:00,
2013-03-26 04:52:00,29.0,22.0,-100.00,North,352,8.0,11.0,76,0.00,,,0.00,,2013-03-26 09:52:00,
2013-03-26 05:03:00,29.0,22.0,-100.00,North,352,8.0,11.0,76,0.00,,,0.00,,2013-03-26 10:03:00,
2013-03-26 05:12:00,29.0,22.0,-100.00,North,352,8.0,11.0,76,0.00,,,0.00,,2013-03-26 10:12:00,
2013-03-26 05:22:00,29.0,22.0,-100.00,North,352,8.0,11.0,76,0.00,,,0.00,,2013-03-26 10:22:00,
2013-03-26 05:53:00,29.0,22.0,-100.00,NNW,346,8.0,12.0,76,0.00,,,0.00,,2013-03-26 10:53:00,
2013-03-26 06:03:00,29.0,22.0,-100.00,NNW,346,8.0,12.0,76,0.00,,,0.00,,2013-03-26 11:03:00,
2013-03-26 06:12:00,29.0,22.0,-100.00,NNW,346,8.0,12.0,76,0.00,,,0.00,,2013-03-26 11:12:00,
2013-03-26 06:22:00,29.0,22.0,-100.00,NNW,346,8.0,12.0,76,0.00,,,0.00,,2013-03-26 11:22:00,
2013-03-26 06:52:00,29.0,22.0,-100.00,NNW,335,7.0,11.0,75,0.00,,,0.00,,2013-03-26 11:52:00,
2013-03-26 07:03:00,29.0,22.0,-100.00,NNW,335,7.0,11.0,75,0.00,,,0.00,,2013-03-26 12:03:00,
2013-03-26 07:12:00,29.0,22.0,-100.00,NNW,335,7.0,11.0,75,0.00,,,0.00,,2013-03-26 12:12:00,
2013-03-26 07:22:00,29.0,22.0,-100.00,NNW,335,7.0,11.0,75,0.00,,,0.00,,2013-03-26 12:22:00,
2013-03-26 07:52:00,29.0,22.0,-100.00,NNW,335,8.0,11.0,75,0.00,,,0.00,,2013-03-26 12:52:00,
2013-03-26 08:03:00,29.0,22.0,-100.00,NNW,335,8.0,11.0,75,0.00,,,0.00,,2013-03-26 13:03:00,
2013-03-26 08:12:00,29.0,22.0,-100.00,NNW,335,8.0,11.0,75,0.00,,,0.00,,2013-03-26 13:12:00,
2013-03-26 08:22:00,29.0,22.0,-100.00,NNW,335,8.0,11.0,75,0.00,,,0.00,,2013-03-26 13:22:00,
2013-03-26 08:52:00,30.0,22.0,-100.00,NNW,337,9.0,15.0,72,0.00,,,0.00,,2013-03-26 13:52:00,
2013-03-26 09:02:00,30.0,22.0,-100.00,NNW,337,9.0,15.0,72,0.00,,,0.00,,2013-03-26 14:02:00,
2013-03-26 09:11:00,30.0,22.0,-100.00,NNW,337,9.0,15.0,72,0.00,,,0.00,,2013-03-26 14:11:00,
2013-03-26 09:22:00,30.0,22.0,-100.00,NNW,337,9.0,15.0,72,0.00,,,0.00,,2013-03-26 14:22:00,
2013-03-26 09:53:00,31.0,22.0,-100.00,NNW,338,12.0,18.0,68,0.00,,,0.00,,2013-03-26 14:53:00,
2013-03-26 10:02:00,31.0,22.0,-100.00,NNW,338,12.0,18.0,68,0.00,,,0.00,,2013-03-26 15:02:00,
2013-03-26 10:12:00,31.0,22.0,-100.00,NNW,338,12.0,18.0,68,0.00,,,0.00,,2013-03-26 15:12:00,
2013-03-26 10:22:00,31.0,22.0,-100.00,NNW,338,12.0,18.0,68,0.00,,,0.00,,2013-03-26 15:22:00,
2013-03-26 10:53:00,33.0,23.0,-100.00,NNW,329,10.0,16.0,66,0.00,,,0.00,,2013-03-26 15:53:00,
2013-03-26 11:03:00,33.0,23.0,-100.00,NNW,329,10.0,16.0,66,0.00,,,0.00,,2013-03-26 16:03:00,
2013-03-26 11:12:00,33.0,23.0,-100.00,NNW,329,10.0,16.0,66,0.00,,,0.00,,2013-03-26 16:12:00,
2013-03-26 11:22:00,33.0,23.0,-100.00,NNW,329,10.0,16.0,66,0.00,,,0.00,,2013-03-26 16:22:00,
2013-03-26 11:53:00,35.0,24.0,-100.00,NNW,328,9.0,15.0,65,0.00,,,0.00,,2013-03-26 16:53:00,
2013-03-26 12:02:00,35.0,24.0,-100.00,NNW,328,9.0,15.0,65,0.00,,,0.00,,2013-03-26 17:02:00,
2013-03-26 12:12:00,35.0,24.0,-100.00,NNW,328,9.0,15.0,65,0.00,,,0.00,,2013-03-26 17:12:00,
2013-03-26 12:23:00,35.0,24.0,-100.00,NNW,328,9.0,15.0,65,0.00,,,0.00,,2013-03-26 17:23:00,
2013-03-26 12:53:00,36.0,24.0,-100.00,NW,313,9.0,15.0,62,0.00,,,0.00,,2013-03-26 17:53:00,
2013-03-26 13:02:00,36.0,24.0,-100.00,NW,313,9.0,15.0,62,0.00,,,0.00,,2013-03-26 18:02:00,
2013-03-26 13:12:00,36.0,24.0,-100.00,NW,313,9.0,15.0,62,0.00,,,0.00,,2013-03-26 18:12:00,
2013-03-26 13:23:00,36.0,24.0,-100.00,NW,313,9.0,15.0,62,0.00,,,0.00,,2013-03-26 18:23:00,
2013-03-26 13:53:00,38.0,25.0,-100.00,NW,315,8.0,15.0,59,0.00,,,0.00,,2013-03-26 18:53:00,
2013-03-26 14:03:00,38.0,25.0,-100.00,NW,315,8.0,15.0,59,0.00,,,0.00,,2013-03-26 19:03:00,
2013-03-26 14:12:00,38.0,25.0,-100.00,NW,315,8.0,15.0,59,0.00,,,0.00,,2013-03-26 19:12:00,
2013-03-26 14:22:00,38.0,25.0,-100.00,NW,315,8.0,15.0,59,0.00,,,0.00,,2013-03-26 19:22:00,
2013-03-26 14:53:00,39.0,25.0,-100.00,NW,317,8.0,13.0,57,0.00,,,0.00,,2013-03-26 19:53:00,
2013-03-26 15:02:00,39.0,25.0,-100.00,NW,317,8.0,13.0,57,0.00,,,0.00,,2013-03-26 20:02:00,
2013-03-26 15:13:00,39.0,25.0,-100.00,NW,317,8.0,13.0,57,0.00,,,0.00,,2013-03-26 20:13:00,
2013-03-26 15:22:00,39.0,25.0,-100.00,NW,317,8.0,13.0,57,0.00,,,0.00,,2013-03-26 20:22:00,
2013-03-26 15:52:00,40.0,26.0,-100.00,NNW,330,7.0,13.0,56,0.00,,,0.00,,2013-03-26 20:52:00,
2013-03-26 16:02:00,40.0,26.0,-100.00,NNW,330,7.0,13.0,56,0.00,,,0.00,,2013-03-26 21:02:00,
2013-03-26 16:12:00,40.0,26.0,-100.00,NNW,330,7.0,13.0,56,0.00,,,0.00,,2013-03-26 21:12:00,
2013-03-26 16:22:00,40.0,26.0,-100.00,NNW,330,7.0,13.0,56,0.00,,,0.00,,2013-03-26 21:22:00,
2013-03-26 16:52:00,40.0,25.0,-100.00,NNW,341,9.0,13.0,54,0.00,,,0.00,,2013-03-26 21:52:00,
2013-03-26 17:02:00,40.0,25.0,-100.00,NNW,341,9.0,13.0,54,0.00,,,0.00,,2013-03-26 22:02:00,
2013-03-26 17:12:00,40.0,25.0,-100.00,NNW,341,9.0,13.0,54,0.00,,,0.00,,2013-03-26 22:12:00,
2013-03-26 17:22:00,40.0,25.0,-100.00,NNW,341,9.0,13.0,54,0.00,,,0.00,,2013-03-26 22:22:00,
2013-03-26 17:52:00,38.0,25.0,-100.00,NW,322,8.0,13.0,59,0.00,,,0.00,,2013-03-26 22:52:00,
2013-03-26 18:01:00,38.0,25.0,-100.00,NW,322,8.0,13.0,59,0.00,,,0.00,,2013-03-26 23:01:00,
2013-03-26 18:10:00,38.0,25.0,-100.00,NW,322,8.0,13.0,59,0.00,,,0.00,,2013-03-26 23:10:00,
2013-03-26 18:22:00,38.0,25.0,-100.00,NW,322,8.0,13.0,59,0.00,,,0.00,,2013-03-26 23:22:00,
2013-03-26 18:53:00,36.0,25.0,-100.00,NW,317,5.0,11.0,65,0.00,,,0.00,,2013-03-26 23:53:00,
2013-03-26 19:02:00,36.0,25.0,-100.00,NW,317,5.0,11.0,65,0.00,,,0.00,,2013-03-27 00:02:00,
2013-03-26 19:12:00,36.0,25.0,-100.00,NW,317,5.0,11.0,65,0.00,,,0.00,,2013-03-27 00:12:00,
2013-03-26 19:22:00,36.0,25.0,-100.00,NW,317,5.0,11.0,65,0.00,,,0.00,,2013-03-27 00:22:00,
2013-03-26 19:52:00,35.0,26.0,-100.00,NNW,330,2.0,7.0,68,0.00,,,0.00,,2013-03-27 00:52:00,
2013-03-26 20:02:00,35.0,26.0,-100.00,NNW,330,2.0,7.0,68,0.00,,,0.00,,2013-03-27 01:02:00,
2013-03-26 20:12:00,35.0,26.0,-100.00,NNW,330,2.0,7.0,68,0.00,,,0.00,,2013-03-27 01:12:00,
2013-03-26 20:22:00,35.0,26.0,-100.00,NNW,330,2.0,7.0,68,0.00,,,0.00,,2013-03-27 01:22:00,
2013-03-26 20:53:00,34.0,26.0,-100.00,WNW,296,3.0,6.0,71,0.00,,,0.00,,2013-03-27 01:53:00,
2013-03-26 21:03:00,34.0,26.0,-100.00,WNW,296,3.0,6.0,71,0.00,,,0.00,,2013-03-27 02:03:00,
2013-03-26 21:12:00,34.0,26.0,-100.00,WNW,296,3.0,6.0,71,0.00,,,0.00,,2013-03-27 02:12:00,
2013-03-26 21:22:00,34.0,26.0,-100.00,WNW,296,3.0,6.0,71,0.00,,,0.00,,2013-03-27 02:22:00,
2013-03-26 21:53:00,33.0,26.0,-100.00,WNW,300,4.0,6.0,75,0.00,,,0.00,,2013-03-27 02:53:00,
2013-03-26 22:02:00,33.0,26.0,-100.00,WNW,300,4.0,6.0,75,0.00,,,0.00,,2013-03-27 03:02:00,
2013-03-26 22:12:00,33.0,26.0,-100.00,WNW,300,4.0,6.0,75,0.00,,,0.00,,2013-03-27 03:12:00,
2013-03-26 22:22:00,33.0,26.0,-100.00,WNW,300,4.0,6.0,75,0.00,,,0.00,,2013-03-27 03:22:00,
2013-03-26 22:53:00,33.0,25.0,-100.00,NW,323,3.0,7.0,71,0.00,,,0.00,,2013-03-27 03:53:00,
2013-03-26 23:03:00,33.0,25.0,-100.00,NW,323,3.0,7.0,71,0.00,,,0.00,,2013-03-27 04:03:00,
2013-03-26 23:13:00,33.0,25.0,-100.00,NW,323,3.0,7.0,71,0.00,,,0.00,,2013-03-27 04:13:00,
2013-03-26 23:23:00,33.0,25.0,-100.00,NW,323,3.0,7.0,71,0.00,,,0.00,,2013-03-27 04:23:00,
2013-03-26 23:52:00,33.0,24.0,-100.00,NW,320,2.0,5.0,70,0.00,,,0.00,,2013-03-27 04:52:00,